Time,TemperatureF,DewpointF,PressureIn,WindDirection,WindDirectionDegrees,WindSpeedMPH,WindSpeedGustMPH,Humidity,HourlyPrecipIn,Conditions,Clouds,dailyrainin,SolarRadiationWatts/m^2,SoftwareType,DateUTC
2013-06-17 00:02:00,72.0,67.0,29.86,WSW,252,2.0,3.0,83,-99.99,,,-99.99,0.000000,,2013-06-17 04:02:00,
2013-06-17 00:12:00,72.0,67.0,29.86,WSW,252,0.0,3.0,84,-99.99,,,-99.99,0.000000,,2013-06-17 04:12:00,
2013-06-17 00:22:00,71.0,66.0,29.86,WSW,252,0.0,3.0,84,-99.99,,,-99.99,0.000000,,2013-06-17 04:22:00,
2013-06-17 00:34:00,71.0,66.0,29.86,WSW,252,1.0,1.0,85,-99.99,,,-99.99,0.000000,,2013-06-17 04:34:00,
2013-06-17 09:43:00,73.0,68.0,29.89,WSW,257,4.0,6.0,85,-99.99,,,-99.99,459.000000,,2013-06-17 13:43:00,
2013-06-17 09:52:00,73.0,68.0,29.89,West,272,1.0,7.0,83,-99.99,,,-99.99,343.000000,,2013-06-17 13:52:00,
2013-06-17 10:02:00,75.0,68.0,29.88,WSW,246,1.0,5.0,78,-99.99,,,-99.99,434.000000,,2013-06-17 14:02:00,
2013-06-17 10:12:00,75.0,68.0,29.88,West,277,1.0,6.0,78,-99.99,,,-99.99,506.000000,,2013-06-17 14:12:00,
2013-06-17 10:22:00,76.0,67.0,29.88,SSW,213,5.0,9.0,74,-99.99,,,-99.99,578.000000,,2013-06-17 14:22:00,
2013-06-17 10:34:00,77.0,68.0,29.88,SW,232,3.0,8.0,73,-99.99,,,-99.99,573.000000,,2013-06-17 14:34:00,
2013-06-17 10:43:00,78.0,68.0,29.88,WNW,282,1.0,6.0,72,-99.99,,,-99.99,624.000000,,2013-06-17 14:43:00,
2013-06-17 10:53:00,78.0,68.0,29.88,West,265,4.0,10.0,72,-99.99,,,-99.99,610.000000,,2013-06-17 14:53:00,
2013-06-17 11:02:00,78.0,68.0,29.88,West,269,4.0,7.0,71,-99.99,,,-99.99,668.000000,,2013-06-17 15:02:00,
2013-06-17 11:12:00,78.0,67.0,29.88,West,269,4.0,9.0,70,-99.99,,,-99.99,673.000000,,2013-06-17 15:12:00,
2013-06-17 11:22:00,79.0,68.0,29.88,West,259,4.0,9.0,68,-99.99,,,-99.99,735.000000,,2013-06-17 15:22:00,
2013-06-17 11:33:00,79.0,67.0,29.88,West,261,5.0,10.0,67,-99.99,,,-99.99,737.000000,,2013-06-17 15:33:00,
2013-06-17 11:43:00,80.0,68.0,29.88,West,281,4.0,10.0,67,-99.99,,,-99.99,708.000000,,2013-06-17 15:43:00,
2013-06-17 11:52:00,80.0,67.0,29.88,WSW,253,8.0,11.0,65,-99.99,,,-99.99,788.000000,,2013-06-17 15:52:00,
2013-06-17 12:02:00,81.0,67.0,29.88,WNW,288,3.0,8.0,62,-99.99,,,-99.99,744.000000,,2013-06-17 16:02:00,
2013-06-17 12:12:00,81.0,66.0,29.88,WSW,257,4.0,9.0,61,-99.99,,,-99.99,858.000000,,2013-06-17 16:12:00,
2013-06-17 12:22:00,83.0,67.0,29.88,SW,233,5.0,11.0,58,-99.99,,,-99.99,896.000000,,2013-06-17 16:22:00,
2013-06-17 12:33:00,83.0,67.0,29.87,WNW,283,2.0,10.0,58,-99.99,,,-99.99,879.000000,,2013-06-17 16:33:00,
2013-06-17 12:43:00,84.0,64.0,29.86,West,278,1.0,11.0,52,-99.99,,,-99.99,176.000000,,2013-06-17 16:43:00,
2013-06-17 12:53:00,84.0,62.0,29.86,WSW,238,4.0,9.0,47,-99.99,,,-99.99,882.000000,,2013-06-17 16:53:00,
2013-06-17 13:02:00,85.0,62.0,29.86,SSW,213,2.0,9.0,46,-99.99,,,-99.99,918.000000,,2013-06-17 17:02:00,
2013-06-17 13:12:00,86.0,62.0,29.86,West,263,4.0,10.0,45,-99.99,,,-99.99,900.000000,,2013-06-17 17:12:00,
2013-06-17 13:22:00,86.0,61.0,29.86,WSW,240,1.0,11.0,43,-99.99,,,-99.99,889.000000,,2013-06-17 17:22:00,
2013-06-17 13:33:00,87.0,60.0,29.85,SW,217,0.0,5.0,40,-99.99,,,-99.99,888.000000,,2013-06-17 17:33:00,
2013-06-17 13:43:00,88.0,59.0,29.85,SSW,210,5.0,9.0,38,-99.99,,,-99.99,809.000000,,2013-06-17 17:43:00,
2013-06-17 13:52:00,88.0,58.0,29.85,SSW,198,8.0,13.0,37,-99.99,,,-99.99,835.000000,,2013-06-17 17:52:00,
2013-06-17 14:02:00,87.0,58.0,29.85,WNW,288,3.0,10.0,38,-99.99,,,-99.99,849.000000,,2013-06-17 18:02:00,
2013-06-17 14:12:00,87.0,53.0,29.85,WNW,300,4.0,7.0,31,-99.99,,,-99.99,826.000000,,2013-06-17 18:12:00,
2013-06-17 14:23:00,87.0,56.0,29.85,SW,229,4.0,9.0,35,-99.99,,,-99.99,696.000000,,2013-06-17 18:23:00,
2013-06-17 14:33:00,87.0,58.0,29.85,NE,46,2.0,7.0,37,-99.99,,,-99.99,773.000000,,2013-06-17 18:33:00,
2013-06-17 14:43:00,87.0,56.0,29.85,West,267,4.0,10.0,35,-99.99,,,-99.99,689.000000,,2013-06-17 18:43:00,
2013-06-17 14:53:00,87.0,56.0,29.85,SSW,205,2.0,11.0,35,-99.99,,,-99.99,652.000000,,2013-06-17 18:53:00,
2013-06-17 15:02:00,87.0,55.0,29.85,WSW,252,2.0,10.0,34,-99.99,,,-99.99,503.000000,,2013-06-17 19:02:00,
2013-06-17 15:12:00,86.0,56.0,29.85,SW,232,4.0,7.0,36,-99.99,,,-99.99,717.000000,,2013-06-17 19:12:00,
2013-06-17 15:22:00,87.0,58.0,29.85,WSW,247,1.0,9.0,37,-99.99,,,-99.99,740.000000,,2013-06-17 19:22:00,
2013-06-17 15:33:00,87.0,56.0,29.85,SW,232,8.0,13.0,35,-99.99,,,-99.99,775.000000,,2013-06-17 19:33:00,
2013-06-17 15:43:00,86.0,55.0,29.85,West,275,4.0,10.0,35,-99.99,,,-99.99,687.000000,,2013-06-17 19:43:00,
2013-06-17 15:53:00,87.0,55.0,29.84,SW,220,2.0,11.0,34,-99.99,,,-99.99,719.000000,,2013-06-17 19:53:00,
2013-06-17 16:02:00,88.0,55.0,29.84,WSW,245,2.0,7.0,33,-99.99,,,-99.99,707.000000,,2013-06-17 20:02:00,
2013-06-17 16:11:00,88.0,54.0,29.83,West,262,3.0,8.0,32,-99.99,,,-99.99,661.000000,,2013-06-17 20:11:00,
2013-06-17 16:22:00,87.0,54.0,29.83,West,262,3.0,7.0,33,-99.99,,,-99.99,548.000000,,2013-06-17 20:22:00,
2013-06-17 16:34:00,87.0,56.0,29.83,West,277,0.0,7.0,35,-99.99,,,-99.99,578.000000,,2013-06-17 20:34:00,
2013-06-17 16:43:00,87.0,55.0,29.83,WSW,238,4.0,12.0,34,-99.99,,,-99.99,541.000000,,2013-06-17 20:43:00,
2013-06-17 16:52:00,87.0,56.0,29.83,WSW,257,3.0,12.0,35,-99.99,,,-99.99,550.000000,,2013-06-17 20:52:00,
2013-06-17 17:01:00,88.0,55.0,29.82,WNW,298,3.0,11.0,33,-99.99,,,-99.99,548.000000,,2013-06-17 21:01:00,
2013-06-17 17:12:00,87.0,55.0,29.82,West,270,1.0,10.0,34,-99.99,,,-99.99,483.000000,,2013-06-17 21:12:00,
2013-06-17 17:22:00,87.0,55.0,29.82,West,270,1.0,6.0,34,-99.99,,,-99.99,429.000000,,2013-06-17 21:22:00,
2013-06-17 17:33:00,87.0,56.0,29.81,West,281,4.0,9.0,35,-99.99,,,-99.99,512.000000,,2013-06-17 21:33:00,
2013-06-17 17:43:00,86.0,57.0,29.81,West,276,2.0,10.0,37,-99.99,,,-99.99,373.000000,,2013-06-17 21:43:00,
2013-06-17 17:52:00,86.0,57.0,29.81,West,276,2.0,10.0,37,-99.99,,,-99.99,373.000000,,2013-06-17 21:52:00,
2013-06-17 18:01:00,85.0,57.0,29.80,West,281,2.0,7.0,38,-99.99,,,-99.99,378.000000,,2013-06-17 22:01:00,
2013-06-17 18:11:00,86.0,56.0,29.80,WNW,284,2.0,5.0,36,-99.99,,,-99.99,345.000000,,2013-06-17 22:11:00,
2013-06-17 18:22:00,86.0,55.0,29.80,WNW,286,0.0,4.0,35,-99.99,,,-99.99,388.000000,,2013-06-17 22:22:00,
2013-06-17 18:34:00,86.0,55.0,29.80,WSW,244,1.0,6.0,35,-99.99,,,-99.99,269.000000,,2013-06-17 22:34:00,
2013-06-17 18:43:00,87.0,57.0,29.80,WSW,248,2.0,5.0,36,-99.99,,,-99.99,304.000000,,2013-06-17 22:43:00,
2013-06-17 18:53:00,86.0,55.0,29.80,WSW,254,3.0,6.0,35,-99.99,,,-99.99,345.000000,,2013-06-17 22:53:00,
2013-06-17 19:02:00,86.0,55.0,29.80,WSW,250,1.0,7.0,35,-99.99,,,-99.99,336.000000,,2013-06-17 23:02:00,
2013-06-17 19:11:00,86.0,54.0,29.80,West,268,0.0,6.0,34,-99.99,,,-99.99,267.000000,,2013-06-17 23:11:00,
2013-06-17 19:22:00,86.0,56.0,29.80,West,269,0.0,4.0,36,-99.99,,,-99.99,294.000000,,2013-06-17 23:22:00,
2013-06-17 19:32:00,86.0,55.0,29.80,West,271,1.0,5.0,35,-99.99,,,-99.99,165.000000,,2013-06-17 23:32:00,
2013-06-17 19:42:00,85.0,56.0,29.80,West,271,0.0,5.0,37,-99.99,,,-99.99,127.000000,,2013-06-17 23:42:00,
2013-06-17 19:53:00,85.0,56.0,29.80,West,271,0.0,4.0,37,-99.99,,,-99.99,116.000000,,2013-06-17 23:53:00,
2013-06-17 20:01:00,84.0,56.0,29.81,West,271,0.0,2.0,39,-99.99,,,-99.99,83.000000,,2013-06-18 00:01:00,
2013-06-17 20:12:00,83.0,56.0,29.81,West,271,0.0,1.0,40,-99.99,,,-99.99,63.000000,,2013-06-18 00:12:00,
2013-06-17 20:22:00,83.0,56.0,29.81,West,271,0.0,1.0,40,-99.99,,,-99.99,63.000000,,2013-06-18 00:22:00,
2013-06-17 20:33:00,82.0,58.0,29.80,West,271,0.0,1.0,44,-99.99,,,-99.99,46.000000,,2013-06-18 00:33:00,
2013-06-17 20:43:00,82.0,58.0,29.81,West,271,0.0,1.0,44,-99.99,,,-99.99,40.000000,,2013-06-18 00:43:00,
2013-06-17 20:52:00,81.0,58.0,29.81,West,271,3.0,4.0,45,-99.99,,,-99.99,32.000000,,2013-06-18 00:52:00,
2013-06-17 21:01:00,81.0,59.0,29.81,West,271,1.0,4.0,47,-99.99,,,-99.99,26.000000,,2013-06-18 01:01:00,
2013-06-17 21:12:00,80.0,60.0,29.81,West,271,0.0,3.0,50,-99.99,,,-99.99,11.000000,,2013-06-18 01:12:00,
2013-06-17 21:23:00,80.0,61.0,29.81,West,271,1.0,4.0,52,-99.99,,,-99.99,5.000000,,2013-06-18 01:23:00,
2013-06-17 21:34:00,79.0,60.0,29.81,West,271,0.0,3.0,52,-99.99,,,-99.99,0.000000,,2013-06-18 01:34:00,
2013-06-17 21:44:00,79.0,61.0,29.81,West,271,0.0,1.0,54,-99.99,,,-99.99,0.000000,,2013-06-18 01:44:00,
2013-06-17 21:53:00,79.0,61.0,29.81,West,271,0.0,0.0,55,-99.99,,,-99.99,0.000000,,2013-06-18 01:53:00,
2013-06-17 22:02:00,78.0,61.0,29.81,West,271,0.0,0.0,56,-99.99,,,-99.99,0.000000,,2013-06-18 02:02:00,
2013-06-17 22:11:00,78.0,62.0,29.81,West,271,0.0,0.0,58,-99.99,,,-99.99,0.000000,,2013-06-18 02:11:00,
2013-06-17 22:22:00,77.0,62.0,29.81,West,271,0.0,1.0,59,-99.99,,,-99.99,0.000000,,2013-06-18 02:22:00,
2013-06-17 22:34:00,77.0,61.0,29.81,West,271,0.0,1.0,58,-99.99,,,-99.99,0.000000,,2013-06-18 02:34:00,
2013-06-17 22:43:00,76.0,61.0,29.81,West,271,0.0,1.0,60,-99.99,,,-99.99,0.000000,,2013-06-18 02:43:00,
2013-06-17 22:53:00,76.0,62.0,29.81,West,271,0.0,1.0,62,-99.99,,,-99.99,0.000000,,2013-06-18 02:53:00,
2013-06-17 23:02:00,76.0,62.0,29.81,West,271,0.0,1.0,63,-99.99,,,-99.99,0.000000,,2013-06-18 03:02:00,
2013-06-17 23:12:00,75.0,62.0,29.82,West,271,0.0,1.0,63,-99.99,,,-99.99,0.000000,,2013-06-18 03:12:00,
2013-06-17 23:23:00,75.0,62.0,29.82,West,271,0.0,1.0,64,-99.99,,,-99.99,0.000000,,2013-06-18 03:23:00,
2013-06-17 23:34:00,74.0,62.0,29.82,West,271,1.0,4.0,66,-99.99,,,-99.99,0.000000,,2013-06-18 03:34:00,
2013-06-17 23:43:00,74.0,61.0,29.81,West,271,0.0,3.0,65,-99.99,,,-99.99,0.000000,,2013-06-18 03:43:00,
2013-06-17 23:53:00,74.0,61.0,29.81,West,271,2.0,3.0,64,-99.99,,,-99.99,0.000000,,2013-06-18 03:53:00,